Regional Weather Roundup
Issued by NWS Albany, NY

Current Version | Previous Version | Graphics & Text | Print | Product List | Glossary On
Versions: 1 2 3 4 5 6 7 8 9 10 11 12 13 14 15 16 17 18 19 20 21 22 23 24 25 26 27
000
ASUS41 KALY 030510
RWRALY

NEW YORK STATE HOURLY WEATHER ROUNDUP
NATIONAL WEATHER SERVICE ALBANY NY
100 AM EDT SUN JUL 03 2022

NOTE: "FAIR" INDICATES FEW OR NO CLOUDS BELOW 12,000 FEET WITH NO
SIGNIFICANT WEATHER AND/OR NO OBSTRUCTIONS TO VISIBILITY.

NYZ032-033-038>043-046>054-057>066-NYZ062>081-082-084-030600-
EAST


CITY           SKY/WX    TMP DP  RH WIND       PRES   REMARKS
ALBANY         PTCLDY    64  53  67 CALM      29.95F
GLENS FALLS    CLEAR     54  51  90 CALM      29.94S
POUGHKEEPSIE   PTCLDY    71  69  93 CALM      29.94F FOG
NEWBURGH       MOCLDY    72  70  94 CALM      29.96F
MONTGOMERY     CLOUDY    70  69  97 CALM      29.96S
WHITE PLAINS   PTCLDY    72  68  87 CALM      29.95S
ISLIP          PTCLDY    73  71  93 SW5       29.94R
NEW YORK CITY  MOCLDY    79  66  64 E5        29.93R
CENTRAL PARK   MOCLDY    78  66  66 CALM      29.97R
$$

NYZ005>009-017-018-044>046-055-056-030600-
CENTRAL


CITY           SKY/WX    TMP DP  RH WIND       PRES   REMARKS
FULTON         PTCLDY    62  53  72 CALM      29.98S
SYRACUSE       PTCLDY    66  54  65 SW5       29.99R
ROME           PTCLDY    57  53  86 E3        30.00R
ELMIRA         MOCLDY    62  54  74 SW7       30.00S
BINGHAMTON     MOCLDY    65  51  60 NW5       30.02S
MONTICELLO     MOCLDY    64  64 100 CALM      30.02S
$$

NYZ026>034-041>043-087-030600-
NORTH


CITY           SKY/WX    TMP DP  RH WIND       PRES   REMARKS
WATERTOWN      PTCLDY    62  49  62 S3        29.95S
FORT DRUM      NOT AVBL
OGDENSBURG     FAIR      63  46  55 SW5       29.90S
MASSENA        CLEAR     60  50  69 SW6       29.91S
SARANAC LAKE   CLEAR     51  49  92 SW3       29.95S
PLATTSBURGH    CLEAR     65  49  56 CALM      29.89S
$$

NYZ001>004-010>016-019>021-085-030600-
WEST


CITY           SKY/WX    TMP DP  RH WIND       PRES   REMARKS
NIAGARA FALLS  PTCLDY    63  53  70 N5        30.01R
BUFFALO        MOCLDY    67  60  78 CALM      30.02S
DUNKIRK        MOCLDY    66  58  75 SW5       30.04R
JAMESTOWN      MOCLDY    64  50  60 NW6       30.08R
WELLSVILLE     MOCLDY    60  49  66 NW5       30.09R
ROCHESTER      MOCLDY    65  56  72 NW6       30.02R
PENN YAN       MOCLDY    64  53  67 CALM      30.02R
$$

             KEY
       WCI = WIND CHILL INDEX
       VSB = VISIBILITY
       HX  = HEAT INDEX
$$



USA.gov is the U.S. government's official web portal to all federal, state and local government web resources and services.